[[{"header":{"parameterUnit":"m.s-1","parameterCategory":1,"la1":30.2991,"la2":30.254,"lo1":-89.0895,"lo2":-89.0444,"dy":0.0017,"dx":0.0017,"nx":28,"ny":28,"refTime":"2024-08-12T03:00:00:Z","depth":0,"parameterNumber":2,"parameterNumberName":"U-component_of_WINDS"},"data":[0,0,0,0,0,0,0,0,0,0,0,0,0,0,0,0,0,0,0,0,0,0,0,0,0,0,0,0,0,0,0,0,0,0,0,0,0,0,0,0,0,0,0,0,0,0,0,0,0,0,0,0,0,0,0,0,0,0,1.8869,1.887,0,1.8918,1.8919,1.8919,1.8911,1.891,1.8909,1.8909,1.8958,1.896,1.8962,0,0,0,0,0,0,0,0,0,0,0,0,0,1.8766,1.8768,1.8869,1.887,1.887,1.8918,1.8919,1.8919,1.8911,1.891,1.8909,1.8908,1.8957,1.896,1.8963,0,0,0,0,0,0,0,0,0,0,0,0,0,1.8813,1.8769,1.8869,1.8872,1.8873,1.8918,1.8919,1.892,1.8912,1.891,1.8909,1.8908,1.8957,1.896,1.8963,1.9008,0,0,1.8973,1.8974,0,0,0,0,0,0,0,0,1.881,1.8816,1.8871,1.8872,1.8873,1.8907,1.8901,1.8949,1.8912,1.8897,1.8909,1.8907,1.8942,1.8947,1.8958,1.901,1.9012,1.8973,1.8975,1.8976,1.8977,0,0,0,0,0,0,0,1.8807,1.8814,1.8889,1.8872,1.8873,1.887,1.8875,1.891,1.8926,1.8898,1.8898,1.8904,1.8942,1.8955,1.896,1.9013,1.8973,1.8976,1.8977,1.8979,1.9101,1.9102,0,0,0,0,0,0,1.8803,1.8812,1.8887,1.889,1.8838,1.8873,1.8879,1.8898,1.8926,1.8929,1.8905,1.8903,1.8951,1.8956,1.8961,1.9013,1.8976,1.8979,1.8981,1.91,1.9101,1.9103,0,0,0,0,0,0,1.8801,1.881,1.8885,1.8851,1.886,1.8876,1.8897,1.8899,1.8912,1.8931,1.8933,1.8915,1.895,1.8957,1.8996,1.9015,1.898,1.8983,1.9098,1.91,1.9102,1.912,0,0,0,0,0,0,1.8798,1.8809,1.8827,1.8851,1.8862,1.8919,1.8899,1.8901,1.8918,1.8916,1.8941,1.8944,1.8949,1.8991,1.8999,1.9019,1.8986,1.9096,1.9099,1.9101,1.9117,1.9122,1.9126,0,0,0,0,0,1.8794,1.883,1.8828,1.8837,1.8885,1.8921,1.8927,1.8932,1.8919,1.8937,1.8948,1.8943,1.9012,1.8995,1.9004,1.9025,1.9095,1.9098,1.9101,1.9115,1.9121,1.9126,0,0,0,0,0,0,1.8808,1.8834,1.8831,1.8877,1.8896,1.8919,1.8942,1.8939,1.8963,1.896,1.8966,1.8972,1.901,1.9022,1.9002,1.9069,1.9052,1.9057,1.906,1.9065,1.9069,1.9065,1.8988,0,0,0,0,0,1.8817,1.8844,1.8865,1.8903,1.8913,1.8926,1.8941,1.8944,1.8965,1.8973,1.8987,1.9007,1.9033,1.905,1.9075,1.9119,1.9123,1.9138,1.9143,1.9146,1.915,1.9171,1.9177,1.9113,1.9113,1.9113,0,0,1.8835,1.8852,1.8869,1.8906,1.8922,1.8949,1.8933,1.8963,1.8982,1.8977,1.9014,1.9026,1.9048,1.9089,1.9108,1.91,1.9169,1.915,1.9152,1.9154,1.9175,1.9181,1.9187,1.9115,1.9114,1.9114,0,0,1.888,1.8897,1.8929,1.8945,1.8968,1.8976,1.8984,1.9007,1.9014,1.9051,1.9047,1.907,1.9116,1.9131,1.9144,1.9194,1.9189,1.9202,1.9224,1.9245,1.925,1.9254,1.927,1.9275,1.9206,1.9206,1.9206,0,1.8899,1.894,1.8946,1.8976,1.8991,1.8988,1.9019,1.9034,1.9065,1.9075,1.9066,1.912,1.9136,1.9179,1.919,1.9203,1.921,1.9198,1.9249,1.9253,1.9258,1.9272,1.9278,1.9207,1.9207,1.9207,1.9206,0,1.8961,1.8989,1.9013,1.9041,1.906,1.909,1.9099,1.9117,1.9118,1.9126,1.9163,1.918,1.9208,1.9218,1.922,1.9261,1.9255,1.9247,1.923,1.9265,1.9278,1.9284,1.9209,1.9208,1.9208,1.9207,0,0,1.9017,1.9048,1.9056,1.9068,1.9093,1.9114,1.9144,1.917,1.9184,1.9205,1.9229,1.9266,1.9258,1.9274,1.9277,1.9295,1.933,1.9285,1.9285,1.9291,1.9374,1.9378,1.9385,1.9328,1.9329,1.933,1.9371,0,1.9063,1.9116,1.9121,1.9167,1.9192,1.9188,1.9214,1.9231,1.9239,1.9261,1.927,1.9296,1.9285,1.9293,1.9312,1.9322,1.9346,1.9319,1.9348,1.9349,1.9341,1.9392,1.9398,1.9436,1.9377,1.9378,1.9379,0,1.9125,1.9146,1.9195,1.9214,1.9225,1.9248,1.9271,1.9292,1.9311,1.9316,1.9332,1.9332,1.9361,1.9343,1.9382,1.9363,1.9375,1.9382,1.9383,1.9385,1.9365,1.9393,1.9449,1.9454,1.9388,1.9387,1.9386,0,1.9158,1.9199,1.9233,1.9244,1.9268,1.9283,1.9294,1.9311,1.9326,1.9347,1.9356,1.938,1.9392,1.941,1.9415,1.9403,1.9453,1.9437,1.9456,1.9456,1.9466,1.9465,1.9522,1.9477,1.9477,1.9477,1.9477,0,1.9208,1.9237,1.9248,1.9268,1.93,1.9306,1.9337,1.9347,1.9362,1.9383,1.9382,1.9402,1.9409,1.943,1.9435,1.9465,1.9471,1.9474,1.9475,1.9473,1.9473,1.948,1.9477,1.9478,1.9478,1.9478,1.9477,0,1.925,1.9258,1.9294,1.9314,1.9319,1.9342,1.9357,1.9377,1.9384,1.9411,1.9418,1.9429,1.9453,1.9461,1.9491,1.9494,1.9528,1.9527,1.9522,1.9521,1.9539,1.9537,1.9602,1.961,1.9561,1.9562,1.9562,0,1.928,1.9302,1.9324,1.9338,1.9349,1.9372,1.9386,1.9392,1.9407,1.9429,1.9445,1.9469,1.9488,1.9527,1.9537,1.9559,1.9558,1.9579,1.9561,1.9558,1.9556,1.9553,1.9555,1.9582,1.9583,1.9583,1.9583,0,1.9333,1.9335,1.9357,1.9379,1.9396,1.9414,1.9431,1.9443,1.945,1.9467,1.9492,1.9507,1.9536,1.9559,1.9581,1.9591,1.9588,1.9589,1.9594,1.9592,1.9587,1.9588,1.9529,1.9587,1.9587,1.9587,1.9586,1.9586,1.9368,1.9387,1.9404,1.9427,1.944,1.9456,1.9474,1.9483,1.9504,1.9528,1.953,1.9556,1.9572,1.9601,1.9612,1.9632,1.9625,1.9634,1.9635,1.9637,1.9637,1.9585,1.9636,1.9636,1.9636,1.9636,1.9636,0,1.9419,1.9429,1.945,1.9474,1.9491,1.9487,1.9505,1.952,1.9543,1.9558,1.9577,1.9604,1.9626,1.9638,1.9659,1.9672,1.9671,1.9678,1.9676,1.9678,1.9643,1.9635,1.9678,1.9678,1.9678,1.9678,1.9678,1.9678,1.9447,1.9477,1.9481,1.9518,1.9528,1.9553,1.9563,1.9577,1.9589,1.9619,1.9637,1.9645,1.9658,1.968,1.97,1.9702,1.971,1.9716,1.9718,1.9685,1.9681,1.9676,1.9669,1.9718,1.9718,1.9751,1.9751,1.9752]},{"header":{"parameterUnit":"m.s-1","parameterCategory":1,"la1":30.2991,"la2":30.254,"lo1":-89.0895,"lo2":-89.0444,"dy":0.0017,"dx":0.0017,"nx":28,"ny":28,"refTime":"2024-08-12T03:00:00:Z","depth":0,"parameterNumber":3,"parameterNumberName":"V-component_of_WINDS"},"data":[0,0,0,0,0,0,0,0,0,0,0,0,0,0,0,0,0,0,0,0,0,0,0,0,0,0,0,0,0,0,0,0,0,0,0,0,0,0,0,0,0,0,0,0,0,0,0,0,0,0,0,0,0,0,0,0,0,0,3.7223,3.7222,0,3.7186,3.7185,3.7185,3.71,3.7098,3.7096,3.7095,3.7058,3.7058,3.7059,0,0,0,0,0,0,0,0,0,0,0,0,0,3.7221,3.7221,3.7223,3.7222,3.7222,3.7186,3.7185,3.7185,3.71,3.7098,3.7096,3.7094,3.7058,3.7058,3.7059,0,0,0,0,0,0,0,0,0,0,0,0,0,3.7207,3.7222,3.7223,3.7175,3.7171,3.7186,3.7185,3.7185,3.7101,3.7098,3.7095,3.7093,3.7057,3.7058,3.7059,3.7118,0,0,3.7062,3.7063,0,0,0,0,0,0,0,0,3.7208,3.7207,3.7183,3.7179,3.7173,3.7145,3.7171,3.7163,3.7101,3.7127,3.7095,3.7092,3.7089,3.7087,3.7086,3.7117,3.7115,3.7062,3.7063,3.7063,3.7064,0,0,0,0,0,0,0,3.7209,3.7208,3.7208,3.7183,3.7177,3.7156,3.7151,3.7169,3.7123,3.7125,3.7118,3.7115,3.7086,3.7085,3.7085,3.7114,3.7062,3.7063,3.7064,3.7064,3.719,3.7192,0,0,0,0,0,0,3.7216,3.7209,3.7209,3.7207,3.7184,3.7158,3.7153,3.7157,3.7123,3.7115,3.7117,3.7111,3.7085,3.7084,3.7083,3.7148,3.7063,3.7064,3.7065,3.7187,3.719,3.7193,0,0,0,0,0,0,3.7217,3.7217,3.7211,3.7207,3.7204,3.7161,3.7166,3.7157,3.7156,3.7117,3.7109,3.7125,3.7083,3.7082,3.711,3.7146,3.7065,3.7066,3.7184,3.7188,3.7192,3.728,0,0,0,0,0,0,3.7217,3.7218,3.724,3.7208,3.7205,3.7238,3.7168,3.7158,3.7158,3.715,3.7122,3.7115,3.7081,3.7109,3.7111,3.7146,3.7067,3.718,3.7186,3.7191,3.7274,3.7287,3.7298,0,0,0,0,0,3.7217,3.7267,3.7241,3.7242,3.7231,3.7241,3.7239,3.7198,3.7162,3.7183,3.7158,3.7116,3.7142,3.7112,3.7114,3.715,3.7178,3.7184,3.719,3.7269,3.7284,3.7298,0,0,0,0,0,0,3.7305,3.7262,3.7233,3.7273,3.7261,3.7226,3.7252,3.7216,3.7214,3.7206,3.7156,3.715,3.7185,3.717,3.7138,3.7204,3.7153,3.716,3.7212,3.7227,3.7239,3.7241,3.7067,0,0,0,0,0,3.7329,3.734,3.7302,3.7341,3.7336,3.7296,3.7298,3.7267,3.7253,3.7247,3.7224,3.7212,3.7217,3.7221,3.7224,3.7272,3.7264,3.7297,3.731,3.732,3.7326,3.7348,3.7362,3.7214,3.7214,3.7213,0,0,3.7378,3.7356,3.7366,3.7358,3.7345,3.7357,3.7292,3.7308,3.7317,3.725,3.7274,3.7257,3.724,3.7278,3.7294,3.7267,3.7365,3.7327,3.7336,3.7336,3.7356,3.737,3.7383,3.7218,3.7217,3.7216,0,0,3.7475,3.746,3.749,3.7478,3.7459,3.7431,3.7439,3.7409,3.7395,3.7419,3.7368,3.7378,3.7389,3.7378,3.7374,3.7466,3.7427,3.7469,3.7531,3.7554,3.7565,3.7575,3.7607,3.7619,3.7475,3.7475,3.7475,0,3.7539,3.7555,3.751,3.7529,3.7527,3.7467,3.7497,3.7488,3.7471,3.747,3.7441,3.7451,3.7436,3.7469,3.7492,3.7491,3.7498,3.7471,3.7567,3.7577,3.7586,3.7615,3.7627,3.748,3.748,3.7479,3.7479,0,3.7634,3.7646,3.7673,3.7657,3.7658,3.7683,3.7641,3.7648,3.7617,3.7593,3.7617,3.7597,3.7593,3.7599,3.757,3.7629,3.7613,3.7576,3.7523,3.7605,3.7632,3.7643,3.7487,3.7486,3.7484,3.7483,0,0,3.7783,3.7742,3.7753,3.7744,3.7718,3.7727,3.7749,3.7745,3.7751,3.7742,3.7758,3.7768,3.7733,3.7729,3.7698,3.7718,3.7791,3.7679,3.7678,3.7699,3.7852,3.7879,3.7892,3.7765,3.7767,3.7769,3.7853,0,3.7872,3.7906,3.7866,3.7909,3.7919,3.7862,3.7881,3.7867,3.7846,3.7851,3.7827,3.7834,3.7789,3.7785,3.7803,3.7778,3.782,3.7772,3.7779,3.778,3.7783,3.7906,3.7934,3.8015,3.7863,3.7865,3.7866,0,3.798,3.7974,3.8018,3.7988,3.7991,3.8009,3.8001,3.8008,3.7991,3.7974,3.7969,3.7931,3.795,3.7901,3.7925,3.7893,3.7894,3.7882,3.7884,3.7882,3.7827,3.7906,3.804,3.8051,3.7882,3.7881,3.788,0,3.8082,3.8086,3.8112,3.8107,3.8074,3.8087,3.8074,3.8055,3.8055,3.8049,3.8048,3.8045,3.8043,3.8041,3.8004,3.7971,3.8033,3.7981,3.8018,3.8019,3.8032,3.8032,3.8167,3.8037,3.8036,3.8036,3.8036,0,3.8184,3.8212,3.8157,3.8173,3.8203,3.8157,3.8188,3.8169,3.8153,3.8164,3.8115,3.8127,3.8078,3.8084,3.8055,3.8079,3.8079,3.8065,3.8057,3.8068,3.807,3.8067,3.806,3.8039,3.8039,3.8038,3.8037,0,3.8302,3.8267,3.8291,3.8258,3.825,3.8273,3.8245,3.8258,3.8233,3.8247,3.8248,3.8209,3.8214,3.8177,3.8175,3.8155,3.8193,3.8176,3.8198,3.8192,3.8231,3.8227,3.8367,3.8383,3.8245,3.8246,3.8247,0,3.8369,3.8389,3.8358,3.8361,3.8351,3.8358,3.8357,3.8313,3.8315,3.8297,3.8312,3.8313,3.8311,3.8321,3.8292,3.829,3.8272,3.8321,3.8271,3.8282,3.827,3.8269,3.827,3.8331,3.8333,3.8334,3.8335,0,3.849,3.8471,3.8472,3.8467,3.8468,3.8462,3.8452,3.8458,3.8411,3.8415,3.8418,3.8417,3.8415,3.8415,3.8408,3.8394,3.8357,3.8351,3.8359,3.8371,3.8382,3.8375,3.8224,3.8348,3.8347,3.8346,3.8345,3.8344,3.8583,3.8598,3.8578,3.858,3.8569,3.8561,3.8571,3.8547,3.855,3.8544,3.8518,3.8527,3.8509,3.8494,3.8484,3.849,3.8466,3.8479,3.8482,3.8485,3.8491,3.8383,3.8489,3.8488,3.8488,3.8488,3.8487,0,3.87,3.8684,3.8687,3.8675,3.8677,3.8642,3.863,3.8634,3.8641,3.8628,3.8627,3.8631,3.8631,3.8603,3.86,3.861,3.8592,3.861,3.8608,3.8605,3.8514,3.8506,3.8624,3.8624,3.8624,3.8624,3.8624,3.8624,3.8761,3.8784,3.8763,3.8779,3.8763,3.8771,3.8766,3.8759,3.8748,3.8754,3.8754,3.8736,3.8716,3.8711,3.871,3.8701,3.8702,3.8725,3.8711,3.8625,3.8612,3.8599,3.8592,3.8726,3.8726,3.8802,3.8803,3.8803]}]]